| time (UTC) | temp C | wind direction | speed KPH | gust KPH | rain 1hr cm | rain 24hr cm | rain mn cm | humidity % | barometer mb |
| 20260509200549 | 12 | 313 | 0.0 | 6.4 | 0.00 | 0.56 | 0.56 | 89 | 1008.8 |
| 20260509200048 | 12 | 325 | 3.2 | 6.4 | 0.00 | 0.56 | 0.56 | 89 | 1008.9 |
| 20260509195548 | 12 | 311 | 0.0 | 4.8 | 0.00 | 0.56 | 0.56 | 89 | 1009.0 |
| 20260509195051 | 12 | 277 | 1.6 | 8.0 | 0.00 | 0.56 | 0.56 | 89 | 1009.0 |
| 20260509194546 | 12 | 257 | 1.6 | 8.0 | 0.00 | 0.56 | 0.56 | 89 | 1009.1 |
| 20260509194047 | 12 | 292 | 0.0 | 6.4 | 0.00 | 0.56 | 0.56 | 89 | 1009.2 |
| 20260509193545 | 12 | 293 | 0.0 | 4.8 | 0.03 | 0.56 | 0.56 | 89 | 1009.2 |
| 20260509193046 | 12 | 273 | 0.0 | 8.0 | 0.05 | 0.56 | 0.56 | 89 | 1009.2 |
| 20260509192548 | 12 | 273 | 1.6 | 8.0 | 0.05 | 0.56 | 0.56 | 89 | 1009.2 |
| 20260509192044 | 12 | 249 | 0.0 | 0.0 | 0.05 | 0.56 | 0.56 | 89 | 1009.3 |
| 20260509191551 | 12 | 268 | 0.0 | 0.0 | 0.05 | 0.56 | 0.56 | 89 | 1009.4 |
| 20260509191048 | 12 | 268 | 0.0 | 0.0 | 0.05 | 0.56 | 0.56 | 89 | 1009.4 |
| 20260509190542 | 12 | 268 | 0.0 | 0.0 | 0.05 | 0.56 | 0.56 | 89 | 1009.5 |
| 20260509190044 | 12 | 268 | 0.0 | 0.0 | 0.05 | 0.56 | 0.56 | 89 | 1009.5 |
| 20260509185543 | 12 | 267 | 0.0 | 0.0 | 0.05 | 0.56 | 0.56 | 89 | 1009.5 |
| 20260509185045 | 12 | 267 | 0.0 | 6.4 | 0.05 | 0.56 | 0.56 | 89 | 1009.5 |
| 20260509184543 | 12 | 292 | 0.0 | 6.4 | 0.05 | 0.56 | 0.56 | 89 | 1009.5 |
| 20260509184042 | 12 | 239 | 0.0 | 4.8 | 0.05 | 0.56 | 0.56 | 89 | 1009.5 |
| 20260509183543 | 12 | 290 | 0.0 | 6.4 | 0.03 | 0.53 | 0.53 | 89 | 1009.5 |
| 20260509183043 | 12 | 291 | 1.6 | 6.4 | 0.00 | 0.51 | 0.51 | 89 | 1009.4 |
| 20260509182542 | 12 | 306 | 0.0 | 4.8 | 0.00 | 0.51 | 0.51 | 89 | 1009.5 |
| 20260509182042 | 12 | 304 | 0.0 | 4.8 | 0.00 | 0.51 | 0.51 | 89 | 1009.5 |
| 20260509181543 | 12 | 322 | 0.0 | 4.8 | 0.00 | 0.51 | 0.51 | 89 | 1009.4 |
| 20260509181041 | 12 | 37 | 0.0 | 4.8 | 0.00 | 0.51 | 0.51 | 89 | 1009.4 |
| 20260509180543 | 12 | 277 | 0.0 | 4.8 | 0.00 | 0.51 | 0.51 | 89 | 1009.4 |
| 20260509180040 | 12 | 281 | 0.0 | 6.4 | 0.00 | 0.51 | 0.51 | 89 | 1009.4 |
| 20260509175540 | 12 | 286 | 0.0 | 9.7 | 0.00 | 0.51 | 0.51 | 89 | 1009.4 |
| 20260509175044 | 12 | 244 | 1.6 | 9.7 | 0.00 | 0.51 | 0.51 | 89 | 1009.4 |
| 20260509174551 | 12 | 223 | 3.2 | 9.7 | 0.00 | 0.51 | 0.51 | 89 | 1009.3 |
| 20260509174039 | 12 | 246 | 0.0 | 12.9 | 0.00 | 0.51 | 0.51 | 90 | 1009.3 |
| 20260509173540 | 12 | 150 | 3.2 | 12.9 | 0.00 | 0.51 | 0.51 | 90 | 1009.4 |
| 20260509173044 | 12 | 308 | 0.0 | 8.0 | 0.00 | 0.51 | 0.51 | 90 | 1009.4 |
| 20260509172541 | 11 | 188 | 1.6 | 9.7 | 0.00 | 0.51 | 0.51 | 90 | 1009.3 |
| 20260509172038 | 11 | 281 | 1.6 | 9.7 | 0.00 | 0.51 | 0.51 | 90 | 1009.3 |
| 20260509171544 | 11 | 158 | 3.2 | 14.5 | 0.00 | 0.51 | 0.51 | 90 | 1009.4 |
| 20260509171036 | 11 | 113 | 4.8 | 11.3 | 0.00 | 0.51 | 0.51 | 90 | 1009.3 |
| 20260509170536 | 11 | 236 | 0.0 | 8.0 | 0.00 | 0.51 | 0.51 | 90 | 1009.3 |
| 20260509170040 | 11 | 136 | 3.2 | 8.0 | 0.00 | 0.51 | 0.51 | 90 | 1009.4 |
| 20260509165535 | 11 | 206 | 0.0 | 0.0 | 0.00 | 0.51 | 0.51 | 90 | 1009.4 |
| 20260509165035 | 11 | 209 | 0.0 | 0.0 | 0.00 | 0.51 | 0.51 | 90 | 1009.4 |
| 20260509164536 | 11 | 207 | 0.0 | 3.2 | 0.00 | 0.51 | 0.51 | 90 | 1009.5 |
| 20260509164034 | 11 | 192 | 0.0 | 6.4 | 0.00 | 0.51 | 0.51 | 90 | 1009.5 |
| 20260509163534 | 11 | 287 | 0.0 | 6.4 | 0.00 | 0.51 | 0.51 | 90 | 1009.6 |
| 20260509163034 | 11 | 263 | 3.2 | 6.4 | 0.00 | 0.51 | 0.51 | 91 | 1009.6 |
| 20260509162533 | 11 | 126 | 1.6 | 6.4 | 0.00 | 0.51 | 0.51 | 91 | 1009.6 |
| 20260509162036 | 11 | 346 | 0.0 | 4.8 | 0.00 | 0.51 | 0.51 | 91 | 1009.7 |
| 20260509161533 | 11 | 254 | 0.0 | 0.0 | 0.00 | 0.51 | 0.51 | 91 | 1009.7 |
| 20260509161033 | 11 | 241 | 0.0 | 0.0 | 0.00 | 0.51 | 0.51 | 91 | 1009.8 |
| 20260509160530 | 11 | 239 | 0.0 | 0.0 | 0.00 | 0.51 | 0.51 | 91 | 1009.9 |
| 20260509160030 | 11 | 237 | 0.0 | 0.0 | 0.00 | 0.51 | 0.51 | 91 | 1009.9 |
| 20260509155529 | 11 | 237 | 0.0 | 0.0 | 0.00 | 0.51 | 0.51 | 91 | 1010.0 |
| 20260509155029 | 11 | 237 | 0.0 | 0.0 | 0.00 | 0.51 | 0.51 | 91 | 1010.0 |
| 20260509154533 | 11 | 237 | 0.0 | 3.2 | 0.03 | 0.51 | 0.51 | 91 | 1009.9 |
| 20260509154030 | 11 | 237 | 0.0 | 4.8 | 0.03 | 0.51 | 0.51 | 91 | 1010.0 |
| 20260509153528 | 11 | 236 | 0.0 | 8.0 | 0.03 | 0.51 | 0.51 | 91 | 1010.1 |
| 20260509153032 | 11 | 342 | 0.0 | 8.0 | 0.03 | 0.51 | 0.51 | 91 | 1010.0 |
| 20260509152527 | 11 | 355 | 0.0 | 0.0 | 0.03 | 0.51 | 0.51 | 91 | 1010.0 |
| 20260509152027 | 11 | 360 | 0.0 | 0.0 | 0.03 | 0.51 | 0.51 | 91 | 1010.1 |
| 20260509151527 | 11 | 355 | 0.0 | 0.0 | 0.05 | 0.51 | 0.51 | 91 | 1010.2 |
| 20260509151024 | 11 | 12 | 0.0 | 0.0 | 0.05 | 0.51 | 0.51 | 91 | 1010.2 |
| 20260509150524 | 11 | 12 | 0.0 | 0.0 | 0.05 | 0.51 | 0.51 | 91 | 1010.3 |
| 20260509150023 | 11 | 12 | 0.0 | 0.0 | 0.05 | 0.51 | 0.51 | 91 | 1010.3 |
| 20260509145523 | 11 | 34 | 0.0 | 0.0 | 0.05 | 0.51 | 0.51 | 91 | 1010.4 |
| 20260509145021 | 11 | 34 | 0.0 | 0.0 | 0.05 | 0.51 | 0.51 | 91 | 1010.5 |
| 20260509144521 | 11 | 36 | 0.0 | 0.0 | 0.03 | 0.48 | 0.48 | 90 | 1010.6 |
| 20260509144019 | 11 | 36 | 0.0 | 0.0 | 0.03 | 0.48 | 0.48 | 91 | 1010.6 |
| 20260509143518 | 10 | 37 | 0.0 | 0.0 | 0.05 | 0.48 | 0.48 | 91 | 1010.7 |
| 20260509143021 | 10 | 37 | 0.0 | 0.0 | 0.05 | 0.48 | 0.48 | 91 | 1010.7 |
| 20260509142517 | 10 | 37 | 0.0 | 0.0 | 0.05 | 0.48 | 0.48 | 90 | 1010.7 |
| 20260509142017 | 10 | 37 | 0.0 | 0.0 | 0.05 | 0.48 | 0.48 | 90 | 1010.7 |
| 20260509141517 | 10 | 37 | 0.0 | 0.0 | 0.03 | 0.46 | 0.46 | 90 | 1010.7 |
| 20260509141015 | 10 | 37 | 0.0 | 0.0 | 0.03 | 0.46 | 0.46 | 90 | 1010.7 |
| 20260509140516 | 10 | 36 | 0.0 | 0.0 | 0.03 | 0.46 | 0.46 | 90 | 1010.7 |
| 20260509140013 | 10 | 37 | 0.0 | 0.0 | 0.03 | 0.46 | 0.46 | 90 | 1010.7 |
| 20260509135514 | 10 | 37 | 0.0 | 0.0 | 0.05 | 0.46 | 0.46 | 90 | 1010.7 |
| 20260509135015 | 10 | 36 | 0.0 | 0.0 | 0.05 | 0.46 | 0.46 | 90 | 1010.6 |
| 20260509134512 | 10 | 11 | 0.0 | 0.0 | 0.05 | 0.46 | 0.46 | 90 | 1010.7 |
| 20260509134010 | 10 | 11 | 0.0 | 0.0 | 0.05 | 0.43 | 0.43 | 90 | 1010.7 |
| 20260509133510 | 10 | 11 | 0.0 | 0.0 | 0.05 | 0.43 | 0.43 | 90 | 1010.7 |
| 20260509133009 | 10 | 11 | 0.0 | 0.0 | 0.08 | 0.43 | 0.43 | 90 | 1010.7 |
| 20260509132509 | 10 | 10 | 0.0 | 0.0 | 0.08 | 0.43 | 0.43 | 90 | 1010.9 |
| 20260509132008 | 10 | 107 | 0.0 | 0.0 | 0.08 | 0.43 | 0.43 | 90 | 1010.8 |
| 20260509131510 | 10 | 107 | 0.0 | 0.0 | 0.10 | 0.43 | 0.43 | 90 | 1010.8 |
| 20260509131004 | 10 | 108 | 0.0 | 0.0 | 0.10 | 0.43 | 0.43 | 89 | 1010.9 |
| 20260509130503 | 10 | 108 | 0.0 | 0.0 | 0.13 | 0.43 | 0.43 | 89 | 1010.9 |
| 20260509130002 | 10 | 108 | 0.0 | 0.0 | 0.13 | 0.43 | 0.43 | 89 | 1011.0 |
| 20260509125505 | 9 | 108 | 0.0 | 0.0 | 0.13 | 0.41 | 0.41 | 89 | 1011.0 |
| 20260509125001 | 9 | 108 | 0.0 | 0.0 | 0.15 | 0.41 | 0.41 | 89 | 1011.0 |
| 20260509124619 | 9 | 108 | 0.0 | 0.0 | 0.15 | 0.41 | 0.41 | 89 | 1011.1 |
| 20260509124100 | 9 | 108 | 0.0 | 0.0 | 0.13 | 0.38 | 0.38 | 89 | 1011.1 |
| 20260509123600 | 9 | 108 | 0.0 | 0.0 | 0.13 | 0.38 | 0.38 | 89 | 1011.1 |
| 20260509123059 | 9 | 108 | 0.0 | 0.0 | 0.13 | 0.36 | 0.36 | 89 | 1011.3 |
| 20260509122559 | 9 | 108 | 0.0 | 0.0 | 0.15 | 0.36 | 0.36 | 89 | 1011.2 |
| 20260509122058 | 9 | 108 | 0.0 | 0.0 | 0.15 | 0.36 | 0.36 | 89 | 1011.2 |
| 20260509121609 | 9 | 108 | 0.0 | 0.0 | 0.13 | 0.33 | 0.33 | 89 | 1011.2 |
| 20260509121054 | 9 | 108 | 0.0 | 0.0 | 0.13 | 0.33 | 0.33 | 89 | 1011.2 |
| 20260509120555 | 9 | 108 | 0.0 | 0.0 | 0.13 | 0.30 | 0.30 | 89 | 1011.3 |
| 20260509120052 | 8 | 108 | 0.0 | 0.0 | 0.13 | 0.30 | 0.30 | 89 | 1011.3 |
| 20260509115551 | 8 | 108 | 0.0 | 0.0 | 0.10 | 0.28 | 0.28 | 88 | 1011.4 |
| 20260509115052 | 8 | 108 | 0.0 | 0.0 | 0.08 | 0.25 | 0.25 | 88 | 1011.4 |
| 20260509114552 | 8 | 108 | 0.0 | 0.0 | 0.10 | 0.25 | 0.25 | 88 | 1011.3 |
| 20260509114049 | 8 | 108 | 0.0 | 0.0 | 0.10 | 0.25 | 0.25 | 88 | 1011.3 |
| 20260509113546 | 8 | 108 | 0.0 | 0.0 | 0.10 | 0.23 | 0.23 | 88 | 1011.3 |
| 20260509113051 | 8 | 107 | 0.0 | 0.0 | 0.10 | 0.23 | 0.23 | 88 | 1011.3 |
| 20260509112548 | 8 | 107 | 0.0 | 0.0 | 0.10 | 0.20 | 0.20 | 88 | 1011.3 |
| 20260509112043 | 8 | 107 | 0.0 | 0.0 | 0.13 | 0.20 | 0.20 | 88 | 1011.3 |
| 20260509111543 | 8 | 107 | 0.0 | 0.0 | 0.15 | 0.20 | 0.20 | 88 | 1011.4 |
| 20260509111043 | 8 | 107 | 0.0 | 0.0 | 0.18 | 0.20 | 0.20 | 88 | 1011.4 |
| 20260509110546 | 8 | 107 | 0.0 | 0.0 | 0.15 | 0.18 | 0.18 | 88 | 1011.3 |
| 20260509110041 | 8 | 107 | 0.0 | 0.0 | 0.15 | 0.18 | 0.18 | 88 | 1011.2 |
| 20260509105544 | 8 | 107 | 0.0 | 0.0 | 0.15 | 0.18 | 0.18 | 88 | 1011.2 |
| 20260509105041 | 8 | 107 | 0.0 | 0.0 | 0.15 | 0.18 | 0.18 | 88 | 1011.1 |
| 20260509104542 | 8 | 107 | 0.0 | 0.0 | 0.13 | 0.15 | 0.15 | 88 | 1011.1 |
| 20260509104039 | 8 | 107 | 0.0 | 0.0 | 0.13 | 0.15 | 0.15 | 87 | 1011.1 |
| 20260509103538 | 8 | 107 | 0.0 | 0.0 | 0.10 | 0.13 | 0.13 | 87 | 1011.2 |
| 20260509103038 | 8 | 107 | 0.0 | 0.0 | 0.10 | 0.13 | 0.13 | 87 | 1011.3 |
| 20260509102539 | 7 | 107 | 0.0 | 0.0 | 0.08 | 0.10 | 0.10 | 87 | 1011.2 |
| 20260509102039 | 7 | 107 | 0.0 | 0.0 | 0.05 | 0.08 | 0.08 | 87 | 1011.3 |
| 20260509101538 | 7 | 107 | 0.0 | 0.0 | 0.03 | 0.05 | 0.05 | 87 | 1011.3 |
| 20260509101036 | 7 | 107 | 0.0 | 0.0 | 0.00 | 0.03 | 0.03 | 87 | 1011.4 |
| 20260509100536 | 7 | 107 | 0.0 | 0.0 | 0.00 | 0.03 | 0.03 | 87 | 1011.3 |
| 20260509100036 | 7 | 107 | 0.0 | 0.0 | 0.00 | 0.03 | 0.03 | 87 | 1011.1 |
| 20260509095536 | 7 | 107 | 0.0 | 0.0 | 0.00 | 0.03 | 0.03 | 87 | 1011.2 |
| 20260509095036 | 7 | 107 | 0.0 | 0.0 | 0.00 | 0.03 | 0.03 | 86 | 1011.2 |
| 20260509094535 | 7 | 107 | 0.0 | 0.0 | 0.00 | 0.03 | 0.03 | 86 | 1011.2 |
| 20260509094035 | 7 | 107 | 0.0 | 0.0 | 0.00 | 0.03 | 0.03 | 86 | 1011.2 |
| 20260509093535 | 7 | 107 | 0.0 | 0.0 | 0.00 | 0.03 | 0.03 | 86 | 1011.1 |
| 20260509093034 | 7 | 107 | 0.0 | 0.0 | 0.00 | 0.03 | 0.03 | 86 | 1011.2 |
| 20260509092534 | 7 | 107 | 0.0 | 0.0 | 0.00 | 0.03 | 0.03 | 86 | 1011.3 |
| 20260509092038 | 7 | 107 | 0.0 | 0.0 | 0.00 | 0.03 | 0.03 | 86 | 1011.3 |
| 20260509091534 | 7 | 107 | 0.0 | 0.0 | 0.00 | 0.03 | 0.03 | 86 | 1011.2 |
| 20260509091033 | 7 | 107 | 0.0 | 0.0 | 0.00 | 0.03 | 0.03 | 86 | 1011.2 |
| 20260509090533 | 7 | 107 | 0.0 | 0.0 | 0.00 | 0.03 | 0.03 | 86 | 1011.3 |
| 20260509090033 | 7 | 107 | 0.0 | 0.0 | 0.00 | 0.03 | 0.03 | 86 | 1011.3 |
| 20260509085531 | 7 | 107 | 0.0 | 0.0 | 0.00 | 0.03 | 0.03 | 86 | 1011.3 |
| 20260509085031 | 7 | 107 | 0.0 | 0.0 | 0.00 | 0.03 | 0.03 | 86 | 1011.3 |
| 20260509084537 | 7 | 107 | 0.0 | 0.0 | 0.00 | 0.03 | 0.03 | 85 | 1011.3 |
| 20260509084031 | 7 | 107 | 0.0 | 0.0 | 0.00 | 0.03 | 0.03 | 85 | 1011.4 |
| 20260509083533 | 7 | 107 | 0.0 | 0.0 | 0.00 | 0.03 | 0.03 | 85 | 1011.4 |
| 20260509083043 | 7 | 107 | 0.0 | 0.0 | 0.00 | 0.03 | 0.03 | 85 | 1011.4 |
| 20260509082529 | 7 | 107 | 0.0 | 0.0 | 0.00 | 0.03 | 0.03 | 85 | 1011.5 |
| 20260509082028 | 7 | 107 | 0.0 | 0.0 | 0.00 | 0.03 | 0.03 | 85 | 1011.6 |
| 20260509081528 | 7 | 9 | 0.0 | 0.0 | 0.00 | 0.03 | 0.03 | 84 | 1011.7 |
| 20260509081029 | 7 | 9 | 0.0 | 0.0 | 0.00 | 0.03 | 0.03 | 84 | 1011.7 |
| 20260509080526 | 7 | 5 | 0.0 | 0.0 | 0.00 | 0.03 | 0.03 | 84 | 1011.7 |
| 20260509080028 | 7 | 122 | 0.0 | 0.0 | 0.00 | 0.03 | 0.03 | 83 | 1011.8 |
| 20260509075530 | 7 | 122 | 0.0 | 0.0 | 0.00 | 0.03 | 0.03 | 83 | 1011.9 |
| 20260509075026 | 7 | 122 | 0.0 | 0.0 | 0.00 | 0.03 | 0.03 | 83 | 1012.0 |
| 20260509074526 | 7 | 122 | 0.0 | 0.0 | 0.00 | 0.03 | 0.03 | 82 | 1012.0 |
| 20260509074025 | 7 | 122 | 0.0 | 0.0 | 0.00 | 0.03 | 0.03 | 82 | 1012.0 |
| 20260509073525 | 7 | 122 | 0.0 | 0.0 | 0.00 | 0.03 | 0.03 | 82 | 1012.0 |
| 20260509073025 | 7 | 122 | 0.0 | 0.0 | 0.00 | 0.03 | 0.03 | 81 | 1011.9 |
| 20260509072526 | 7 | 122 | 0.0 | 0.0 | 0.00 | 0.03 | 0.03 | 81 | 1011.9 |
| 20260509072024 | 7 | 122 | 0.0 | 0.0 | 0.00 | 0.03 | 0.03 | 81 | 1011.8 |
| 20260509071524 | 7 | 122 | 0.0 | 0.0 | 0.03 | 0.03 | 0.03 | 81 | 1011.8 |
| 20260509071023 | 7 | 122 | 0.0 | 0.0 | 0.03 | 0.03 | 0.03 | 81 | 1011.7 |
| 20260509070522 | 7 | 122 | 0.0 | 0.0 | 0.03 | 0.03 | 0.03 | 80 | 1011.7 |
| 20260509070022 | 7 | 122 | 0.0 | 0.0 | 0.03 | 0.03 | 0.03 | 79 | 1011.8 |
| 20260509065521 | 7 | 122 | 0.0 | 0.0 | 0.03 | 0.03 | 0.03 | 79 | 1011.8 |
| 20260509065021 | 7 | 122 | 0.0 | 0.0 | 0.03 | 0.03 | 0.03 | 79 | 1011.9 |
| 20260509064520 | 7 | 122 | 0.0 | 0.0 | 0.03 | 0.03 | 0.03 | 79 | 1011.9 |
| 20260509064023 | 7 | 122 | 0.0 | 0.0 | 0.03 | 0.03 | 0.03 | 79 | 1012.0 |
| 20260509063524 | 7 | 122 | 0.0 | 0.0 | 0.03 | 0.03 | 0.03 | 78 | 1012.0 |
| 20260509063018 | 7 | 122 | 0.0 | 0.0 | 0.03 | 0.03 | 0.03 | 78 | 1012.0 |
| 20260509062523 | 7 | 122 | 0.0 | 0.0 | 0.03 | 0.03 | 0.03 | 77 | 1012.1 |
| 20260509062023 | 7 | 122 | 0.0 | 0.0 | 0.03 | 0.03 | 0.03 | 77 | 1012.3 |
| 20260509061521 | 7 | 122 | 0.0 | 0.0 | 0.00 | 0.00 | 0.00 | 77 | 1012.3 |
| 20260509061016 | 7 | 122 | 0.0 | 0.0 | 0.00 | 0.00 | 0.00 | 77 | 1012.3 |
| 20260509060515 | 7 | 122 | 0.0 | 0.0 | 0.00 | 0.00 | 0.00 | 76 | 1012.4 |
| 20260509060015 | 7 | 122 | 0.0 | 0.0 | 0.00 | 0.00 | 0.00 | 76 | 1012.5 |
| 20260509055516 | 7 | 122 | 0.0 | 0.0 | 0.00 | 0.00 | 0.00 | 76 | 1012.5 |
| 20260509055014 | 7 | 122 | 0.0 | 0.0 | 0.00 | 0.00 | 0.00 | 75 | 1012.5 |
| 20260509054515 | 7 | 122 | 0.0 | 0.0 | 0.00 | 0.00 | 0.00 | 75 | 1012.5 |
| 20260509054014 | 7 | 122 | 0.0 | 0.0 | 0.00 | 0.00 | 0.00 | 75 | 1012.6 |
| 20260509053514 | 7 | 122 | 0.0 | 0.0 | 0.00 | 0.00 | 0.00 | 75 | 1012.5 |
| 20260509053014 | 7 | 122 | 0.0 | 0.0 | 0.00 | 0.00 | 0.00 | 75 | 1012.5 |
| 20260509052514 | 7 | 122 | 0.0 | 0.0 | 0.00 | 0.00 | 0.00 | 75 | 1012.6 |
| 20260509052013 | 7 | 122 | 0.0 | 0.0 | 0.00 | 0.00 | 0.00 | 74 | 1012.5 |
| 20260509051513 | 7 | 122 | 0.0 | 0.0 | 0.00 | 0.00 | 0.00 | 74 | 1012.6 |
| 20260509051115 | 7 | 122 | 0.0 | 0.0 | 0.00 | 0.00 | 0.00 | 74 | 1012.6 |
| 20260509050513 | 7 | 122 | 0.0 | 0.0 | 0.00 | 0.00 | 0.00 | 74 | 1012.4 |
| 20260509050013 | 7 | 122 | 0.0 | 0.0 | 0.00 | 0.00 | 0.00 | 74 | 1012.4 |
| 20260509045511 | 7 | 122 | 0.0 | 0.0 | 0.00 | 0.00 | 0.00 | 74 | 1012.4 |
| 20260509045011 | 7 | 122 | 0.0 | 0.0 | 0.00 | 0.00 | 0.00 | 73 | 1012.4 |
| 20260509044511 | 7 | 122 | 0.0 | 0.0 | 0.00 | 0.00 | 0.00 | 73 | 1012.5 |
| 20260509044013 | 7 | 122 | 0.0 | 0.0 | 0.00 | 0.00 | 0.00 | 74 | 1012.4 |
| 20260509043510 | 7 | 122 | 0.0 | 0.0 | 0.00 | 0.00 | 0.00 | 73 | 1012.6 |
| 20260509043010 | 7 | 122 | 0.0 | 0.0 | 0.00 | 0.00 | 0.00 | 72 | 1012.6 |
| 20260509042508 | 7 | 122 | 0.0 | 0.0 | 0.00 | 0.00 | 0.00 | 71 | 1012.7 |
| 20260509042009 | 7 | 122 | 0.0 | 0.0 | 0.00 | 0.00 | 0.00 | 71 | 1012.8 |
| 20260509041508 | 7 | 122 | 0.0 | 0.0 | 0.00 | 0.00 | 0.00 | 71 | 1012.8 |
| 20260509041008 | 7 | 122 | 0.0 | 0.0 | 0.00 | 0.00 | 0.00 | 71 | 1012.7 |
| 20260509040506 | 7 | 122 | 0.0 | 0.0 | 0.00 | 0.00 | 0.00 | 70 | 1012.7 |
| 20260509040006 | 7 | 122 | 0.0 | 0.0 | 0.00 | 0.00 | 0.00 | 70 | 1012.7 |
| 20260509035507 | 7 | 122 | 0.0 | 0.0 | 0.00 | 0.00 | 0.00 | 69 | 1012.7 |
| 20260509035005 | 7 | 122 | 0.0 | 0.0 | 0.00 | 0.00 | 0.00 | 69 | 1012.7 |
| 20260509034505 | 7 | 122 | 0.0 | 0.0 | 0.00 | 0.00 | 0.00 | 69 | 1012.8 |
| 20260509034005 | 7 | 122 | 0.0 | 0.0 | 0.00 | 0.00 | 0.00 | 69 | 1012.8 |
| 20260509033505 | 7 | 122 | 0.0 | 0.0 | 0.00 | 0.00 | 0.00 | 68 | 1012.8 |
| 20260509033005 | 7 | 122 | 0.0 | 0.0 | 0.00 | 0.00 | 0.00 | 68 | 1012.8 |
| 20260509032505 | 7 | 122 | 0.0 | 0.0 | 0.00 | 0.00 | 0.00 | 68 | 1012.8 |
| 20260509032006 | 7 | 122 | 0.0 | 0.0 | 0.00 | 0.00 | 0.00 | 68 | 1012.8 |
| 20260509031505 | 8 | 122 | 0.0 | 0.0 | 0.00 | 0.00 | 0.00 | 67 | 1012.7 |
| 20260509031004 | 8 | 122 | 0.0 | 0.0 | 0.00 | 0.00 | 0.00 | 67 | 1012.6 |
| 20260509030508 | 8 | 122 | 0.0 | 0.0 | 0.00 | 0.00 | 0.00 | 67 | 1012.7 |
| 20260509030004 | 8 | 122 | 0.0 | 0.0 | 0.00 | 0.00 | 0.00 | 66 | 1012.8 |
| 20260509025504 | 8 | 122 | 0.0 | 0.0 | 0.00 | 0.00 | 0.00 | 65 | 1012.8 |
| 20260509025003 | 8 | 122 | 0.0 | 0.0 | 0.00 | 0.00 | 0.00 | 65 | 1012.9 |
| 20260509024503 | 8 | 122 | 0.0 | 0.0 | 0.00 | 0.00 | 0.00 | 65 | 1012.9 |
| 20260509024004 | 8 | 122 | 0.0 | 0.0 | 0.00 | 0.00 | 0.00 | 64 | 1012.9 |
| 20260509023504 | 8 | 122 | 0.0 | 0.0 | 0.00 | 0.00 | 0.00 | 64 | 1012.9 |
| 20260509023003 | 8 | 122 | 0.0 | 0.0 | 0.00 | 0.00 | 0.00 | 64 | 1012.8 |
| 20260509022505 | 8 | 122 | 0.0 | 0.0 | 0.00 | 0.00 | 0.00 | 63 | 1012.7 |
| 20260509022003 | 9 | 122 | 0.0 | 0.0 | 0.00 | 0.00 | 0.00 | 62 | 1012.7 |
| 20260509021503 | 9 | 122 | 0.0 | 0.0 | 0.00 | 0.00 | 0.00 | 62 | 1012.7 |
| 20260509021002 | 9 | 122 | 0.0 | 0.0 | 0.00 | 0.00 | 0.00 | 61 | 1012.7 |
| 20260509020502 | 9 | 122 | 0.0 | 0.0 | 0.00 | 0.00 | 0.00 | 61 | 1012.7 |
| 20260509020002 | 10 | 122 | 0.0 | 0.0 | 0.00 | 0.00 | 0.00 | 61 | 1012.8 |
| 20260509015502 | 10 | 122 | 0.0 | 0.0 | 0.00 | 0.00 | 0.00 | 60 | 1012.8 |
| 20260509015002 | 10 | 122 | 0.0 | 0.0 | 0.00 | 0.00 | 0.00 | 59 | 1012.7 |
| 20260509014503 | 10 | 122 | 0.0 | 0.0 | 0.00 | 0.00 | 0.00 | 59 | 1012.7 |
| 20260509014001 | 10 | 122 | 0.0 | 0.0 | 0.00 | 0.00 | 0.00 | 58 | 1012.7 |
| 20260509013501 | 10 | 122 | 0.0 | 0.0 | 0.00 | 0.00 | 0.00 | 58 | 1012.7 |
| 20260509013002 | 11 | 122 | 0.0 | 0.0 | 0.00 | 0.00 | 0.00 | 58 | 1012.5 |
| 20260509012502 | 11 | 122 | 0.0 | 0.0 | 0.00 | 0.00 | 0.00 | 57 | 1012.4 |
| 20260509012002 | 11 | 122 | 0.0 | 0.0 | 0.00 | 0.00 | 0.00 | 57 | 1012.3 |
| 20260509011501 | 11 | 122 | 0.0 | 1.6 | 0.00 | 0.00 | 0.00 | 57 | 1012.3 |
| 20260509011103 | 11 | 122 | 0.0 | 1.6 | 0.00 | 0.00 | 0.00 | 56 | 1012.3 |
| 20260509010600 | 11 | 122 | 0.0 | 1.6 | 0.00 | 0.00 | 0.00 | 55 | 1012.3 |
| 20260509010502 | 11 | 122 | 0.0 | 1.6 | 0.00 | 0.00 | 0.00 | 55 | 1012.3 |
| 20260509010100 | 11 | 122 | 0.0 | 4.8 | 0.00 | 0.00 | 0.00 | 54 | 1012.2 |
| 20260509005604 | 11 | 122 | 1.6 | 4.8 | 0.00 | 0.00 | 0.00 | 53 | 1012.1 |
| 20260509005059 | 11 | 113 | 0.0 | 6.4 | 0.00 | 0.00 | 0.00 | 52 | 1012.1 |
| 20260509004603 | 11 | 138 | 3.2 | 6.4 | 0.00 | 0.00 | 0.00 | 54 | 1011.9 |
| 20260509004059 | 11 | 134 | 0.0 | 8.0 | 0.00 | 0.00 | 0.00 | 53 | 1011.9 |
| 20260509003600 | 11 | 128 | 0.0 | 8.0 | 0.00 | 0.00 | 0.00 | 52 | 1011.8 |
| 20260509003100 | 12 | 130 | 3.2 | 6.4 | 0.00 | 0.00 | 0.00 | 53 | 1011.8 |
| 20260509002604 | 12 | 109 | 1.6 | 4.8 | 0.00 | 0.00 | 0.00 | 53 | 1011.7 |
| 20260509002059 | 12 | 103 | 0.0 | 0.0 | 0.00 | 0.00 | 0.00 | 52 | 1011.7 |
| 20260509001559 | 12 | 99 | 0.0 | 0.0 | 0.00 | 0.00 | 0.00 | 52 | 1011.7 |
| 20260509001100 | 13 | 57 | 0.0 | 0.0 | 0.00 | 0.00 | 0.00 | 51 | 1011.6 |
| 20260509000557 | 13 | 28 | 0.0 | 0.0 | 0.00 | 0.00 | 0.00 | 50 | 1011.6 |
| 20260509000100 | 13 | 27 | 0.0 | 0.0 | 0.00 | 0.00 | 0.00 | 49 | 1011.4 |
| 20260508235559 | 13 | 27 | 0.0 | 0.0 | 0.00 | 0.00 | 0.00 | 48 | 1011.4 |
| 20260508235057 | 13 | 27 | 0.0 | 0.0 | 0.00 | 0.00 | 0.00 | 47 | 1011.4 |
| 20260508234659 | 13 | 27 | 0.0 | 0.0 | 0.00 | 0.00 | 0.00 | 47 | 1011.4 |
| 20260508234057 | 13 | 27 | 0.0 | 0.0 | 0.00 | 0.00 | 0.00 | 46 | 1011.3 |
| 20260508233557 | 14 | 27 | 0.0 | 0.0 | 0.00 | 0.00 | 0.00 | 46 | 1011.2 |
| 20260508233110 | 14 | 27 | 0.0 | 0.0 | 0.00 | 0.00 | 0.00 | 45 | 1011.1 |
| 20260508232556 | 14 | 27 | 0.0 | 0.0 | 0.00 | 0.00 | 0.00 | 44 | 1011.1 |
| 20260508232157 | 14 | 27 | 0.0 | 0.0 | 0.00 | 0.00 | 0.00 | 44 | 1011.1 |
| 20260508231559 | 14 | 26 | 0.0 | 0.0 | 0.00 | 0.00 | 0.00 | 44 | 1011.1 |
| 20260508231057 | 15 | 47 | 0.0 | 0.0 | 0.00 | 0.00 | 0.00 | 43 | 1011.1 |
| 20260508230556 | 15 | 49 | 0.0 | 3.2 | 0.00 | 0.00 | 0.00 | 43 | 1011.2 |
| 20260508230104 | 15 | 49 | 0.0 | 3.2 | 0.00 | 0.00 | 0.00 | 42 | 1011.1 |
| 20260508225556 | 15 | 55 | 1.6 | 8.0 | 0.00 | 0.00 | 0.00 | 42 | 1011.0 |
| 20260508225056 | 15 | 48 | 1.6 | 8.0 | 0.00 | 0.00 | 0.00 | 41 | 1011.1 |
| 20260508224556 | 15 | 355 | 3.2 | 8.0 | 0.00 | 0.00 | 0.00 | 41 | 1011.1 |
| 20260508224056 | 15 | 34 | 0.0 | 6.4 | 0.00 | 0.00 | 0.00 | 41 | 1011.2 |
| 20260508223555 | 15 | 34 | 1.6 | 9.7 | 0.00 | 0.00 | 0.00 | 41 | 1011.1 |
| 20260508223056 | 15 | 40 | 3.2 | 9.7 | 0.00 | 0.00 | 0.00 | 41 | 1011.1 |
| 20260508222555 | 15 | 55 | 3.2 | 6.4 | 0.00 | 0.00 | 0.00 | 41 | 1011.0 |
| 20260508222057 | 15 | 248 | 1.6 | 9.7 | 0.00 | 0.00 | 0.00 | 40 | 1011.0 |
| 20260508221555 | 15 | 233 | 1.6 | 11.3 | 0.00 | 0.00 | 0.00 | 41 | 1011.0 |
| 20260508221055 | 15 | 214 | 1.6 | 11.3 | 0.00 | 0.00 | 0.00 | 41 | 1011.0 |
| 20260508220554 | 15 | 272 | 4.8 | 9.7 | 0.00 | 0.00 | 0.00 | 41 | 1011.0 |
| 20260508220057 | 16 | 273 | 3.2 | 14.5 | 0.00 | 0.00 | 0.00 | 42 | 1011.0 |
| 20260508215553 | 16 | 253 | 3.2 | 14.5 | 0.00 | 0.00 | 0.00 | 42 | 1011.1 |
| 20260508215053 | 16 | 187 | 4.8 | 9.7 | 0.00 | 0.00 | 0.00 | 40 | 1011.1 |
| 20260508214552 | 15 | 219 | 1.6 | 8.0 | 0.00 | 0.00 | 0.00 | 40 | 1011.1 |
| 20260508214052 | 15 | 261 | 3.2 | 11.3 | 0.00 | 0.00 | 0.00 | 41 | 1011.2 |
| 20260508213550 | 15 | 207 | 1.6 | 14.5 | 0.00 | 0.00 | 0.00 | 43 | 1011.2 |
| 20260508213050 | 15 | 13 | 4.8 | 14.5 | 0.00 | 0.00 | 0.00 | 43 | 1011.2 |
| 20260508212549 | 15 | 331 | 3.2 | 8.0 | 0.00 | 0.00 | 0.00 | 43 | 1011.3 |
| 20260508212049 | 15 | 246 | 1.6 | 9.7 | 0.00 | 0.00 | 0.00 | 43 | 1011.3 |
| 20260508211549 | 15 | 272 | 3.2 | 14.5 | 0.00 | 0.00 | 0.00 | 42 | 1011.3 |
| 20260508211048 | 15 | 227 | 3.2 | 11.3 | 0.00 | 0.00 | 0.00 | 41 | 1011.4 |
| 20260508210551 | 15 | 297 | 0.0 | 11.3 | 0.00 | 0.00 | 0.00 | 42 | 1011.3 |
| 20260508210047 | 15 | 286 | 1.6 | 16.1 | 0.00 | 0.00 | 0.00 | 42 | 1011.4 |
| 20260508205546 | 15 | 291 | 4.8 | 16.1 | 0.00 | 0.00 | 0.00 | 42 | 1011.5 |
| 20260508205047 | 15 | 226 | 6.4 | 17.7 | 0.00 | 0.00 | 0.00 | 42 | 1011.5 |
| 20260508204547 | 15 | 240 | 8.0 | 17.7 | 0.00 | 0.00 | 0.00 | 43 | 1011.6 |
| 20260508204047 | 15 | 281 | 11.3 | 17.7 | 0.00 | 0.00 | 0.00 | 41 | 1011.6 |
| 20260508203548 | 14 | 271 | 4.8 | 12.9 | 0.00 | 0.00 | 0.00 | 45 | 1011.6 |
| 20260508203044 | 14 | 249 | 6.4 | 14.5 | 0.00 | 0.00 | 0.00 | 41 | 1011.8 |
| 20260508202543 | 15 | 295 | 6.4 | 17.7 | 0.00 | 0.00 | 0.00 | 42 | 1011.9 |
| 20260508202043 | 15 | 272 | 9.7 | 17.7 | 0.00 | 0.00 | 0.00 | 42 | 1011.8 |
| 20260508201543 | 15 | 233 | 0.0 | 17.7 | 0.00 | 0.00 | 0.00 | 41 | 1011.8 |